Home > Time Zones > World Clock > Weather > Italy > Turin > Past weeks

Flag for Italy Weather past 2 weeks in Turin, Italy

Now
68 °F

Sunny.


Feels Like: 68 °F
Forecast: 63 / 85 °F
Wind: 2 mph from West

Location: Torino / Bric Della Croce

Current Time: Jul 30, 2014 at 11:36:37 PM

Latest Report: Jul 30, 2014 at 9:55 PM


Visibility: 10 mi

Pressure: 29.80 "Hg

Humidity: 73%

Dew point: 59 °F

Location of TurinLocation

Historic Weather in Turin — Graph

°F

Turin temperature yesterday

Maximum temperature yesterday: 63 °F (at 2:55 PM)
Minimum temperature yesterday: 57 °F (at 12:55 PM)
Average temperature yesterday: 59 °F

Past Weeks' High & Low Weather Summary

 TemperatureHumidityPressure
High82 °F (Jul 18, 3:55 PM)100% (Jul 18, 5:55 AM)30.21 "Hg (Jul 18, 5:55 AM)
Low57 °F (Jul 29, 12:55 PM)42% (Jul 16, 5:55 PM)29.71 "Hg (Jul 30, 6:55 AM)
Average68 °F83%29.96 "Hg
* Reported Jul 15 9:55 PM — Jul 30 9:55 PM, Turin, Weather by CustomWeather, © 2014

Note: Actual official high and low records may vary slightly from our data, if they occured in-between our weather recording intervals... More about our weather records

Advertising

Turin weather history for previous 24 hours

 ConditionsComfort  
Time TempWeatherWind HumidityBarometerVisibility
9:55 PM
Jul 30
68 °FSunny.2 mph73%29.80 "Hg10 mi
8:55 PM72 °FSunny.3 mph69%29.80 "Hg10 mi
7:55 PM72 °FSunny.2 mph69%29.80 "Hg10 mi
6:55 PM72 °FSunny.3 mph61%29.80 "Hg10 mi
5:55 PM72 °FSunny.5 mph61%29.80 "Hg10 mi
4:55 PM72 °FSunny.9 mph69%29.80 "Hg10 mi
3:55 PM72 °FSunny.10 mph57%29.77 "Hg10 mi
2:55 PM72 °FSunny.8 mph53%29.74 "Hg10 mi
1:55 PM70 °FSunny.6 mph64%29.74 "Hg10 mi
12:55 PM68 °FSunny.3 mph69%29.74 "Hg10 mi
11:55 AM66 °FSunny.3 mph68%29.71 "Hg10 mi
10:55 AM64 °FSunny.3 mph49%29.71 "Hg10 mi
9:55 AM64 °FSunny.6 mph49%29.71 "Hg10 mi
8:55 AM63 °FSunny.7 mph56%29.71 "Hg10 mi
7:55 AM61 °FSunny.12 mph59%29.71 "Hg10 mi
6:55 AM61 °FClear.9 mph68%29.71 "Hg10 mi
5:55 AM59 °FClear.12 mph82%29.74 "Hg10 mi
4:55 AM59 °FPassing clouds.8 mph72%29.74 "HgN/A
3:55 AM57 °FClear.8 mph100%29.77 "Hg10 mi
2:55 AM57 °FClear.10 mph77%29.77 "Hg10 mi
1:55 AM59 °FClear.8 mph94%29.83 "Hg10 mi
12:55 AM57 °FClear.7 mph100%29.80 "Hg10 mi
11:55 PM
Jul 29
57 °FClear.8 mph100%29.83 "Hg10 mi
Weather by CustomWeather, © 2014

See weather overviewHow to use our weather pages